Flag for Greenland Weather past 2 weeks in Ittoqqortoormiit, Greenland

Now
48 °F

Sunny.


Feels Like: 47 °F
Forecast: 41 / 47 °F
Wind: 3 mph from West

Location: Scoresbysund

Current Time: Aug 20, 2014 at 6:53:30 PM

Latest Report: Aug 20, 2014 at 5:00 PM


Visibility: 31 mi

Pressure: 30.16 "Hg

Humidity: 61%

Dew point: 35 °F

Location of IttoqqortoormiitLocation

Historic Weather in Ittoqqortoormiit — Graph

°F

Ittoqqortoormiit temperature yesterday

Maximum temperature yesterday: 51 °F (at 10:00 AM)
Minimum temperature yesterday: 40 °F (at 12:00 AM)
Average temperature yesterday: 47 °F

Past Weeks' High & Low Weather Summary

 TemperatureHumidityPressure
High57 °F (Aug 10, 6:00 PM)98% (Aug 12, 6:00 AM)30.28 "Hg (Aug 12, 6:00 AM)
Low39 °F (Aug 12, 7:00 AM)30% (Aug 17, 8:00 AM)29.70 "Hg (Aug 14, 5:00 AM)
Average46 °F65%30.02 "Hg
* Reported Aug 5 5:00 PM — Aug 20 5:00 PM, Ittoqqortoormiit, Weather by CustomWeather, © 2014

Note: Actual official high and low records may vary slightly from our data, if they occured in-between our weather recording intervals... More about our weather records

Advertising

Ittoqqortoormiit weather history for previous 24 hours

 ConditionsComfort  
Time TempWeatherWind HumidityBarometerVisibility
5:00 PM
Aug 20
48 °FSunny.3 mph61%30.16 "Hg31 mi
4:00 PM48 °FSunny.6 mph60%30.18 "Hg25 mi
3:00 PM49 °FSunny.5 mph58%30.19 "Hg25 mi
2:00 PM47 °FSunny.5 mph61%30.21 "Hg25 mi
1:00 PM47 °FSunny.5 mph59%30.22 "Hg28 mi
12:00 PM47 °FSunny.3 mph56%30.23 "Hg19 mi
11:00 AM47 °FSunny.5 mph54%30.23 "Hg28 mi
10:00 AM49 °FSunny.2 mph48%30.23 "Hg31 mi
9:00 AM49 °FSunny.1 mph47%30.23 "Hg25 mi
8:00 AM45 °FSunny.3 mph54%30.24 "Hg31 mi
7:00 AM43 °FSunny.7 mph58%30.24 "Hg31 mi
6:00 AM41 °FSunny.9 mph61%30.25 "Hg31 mi
5:00 AM41 °FSunny.7 mph62%30.26 "Hg31 mi
4:00 AM41 °FClear.6 mph62%30.26 "Hg31 mi
3:00 AM43 °FClear.3 mph60%30.26 "Hg31 mi
2:00 AM43 °FClear.2 mph62%30.27 "Hg31 mi
1:00 AM43 °FClear.12 mph59%30.28 "Hg31 mi
12:00 AM43 °FClear.10 mph59%30.27 "Hg31 mi
11:00 PM
Aug 19
44 °FClear.1 mph58%30.28 "Hg31 mi
10:00 PM46 °FSunny.3 mph52%30.28 "Hg31 mi
9:00 PM48 °FSunny.8 mph44%30.27 "Hg31 mi
8:00 PM47 °FSunny.18 mph46%30.26 "Hg31 mi
7:00 PM48 °FSunny.15 mph42%30.25 "Hg31 mi
6:00 PM48 °FSunny.24 mph42%30.22 "Hg31 mi
Weather by CustomWeather, © 2014

See weather overviewHow to use our weather pages